TimeMDT,TemperatureF,Dew PointF,Humidity,Sea Level PressureIn,VisibilityMPH,Wind Direction,Wind SpeedMPH,Gust SpeedMPH,PrecipitationIn,Events,Conditions,WindDirDegrees,DateUTC
12:53 AM,64.0,50.0,60,29.95,10.0,South,9.2,-,N/A,,Clear,170,2013-07-08 06:53:00
1:53 AM,60.1,48.9,67,30.00,10.0,South,8.1,-,N/A,,Clear,170,2013-07-08 07:53:00
2:53 AM,59.0,48.9,69,30.01,10.0,South,5.8,-,N/A,,Clear,190,2013-07-08 08:53:00
3:53 AM,60.1,48.9,67,29.98,10.0,SSW,8.1,-,N/A,,Partly Cloudy,200,2013-07-08 09:53:00
4:53 AM,61.0,50.0,67,29.97,10.0,SW,4.6,-,N/A,,Mostly Cloudy,230,2013-07-08 10:53:00
5:53 AM,60.1,52.0,75,29.99,10.0,SSE,5.8,-,0.00,,Mostly Cloudy,160,2013-07-08 11:53:00
6:53 AM,59.0,53.1,81,30.01,10.0,NNE,6.9,-,N/A,,Partly Cloudy,20,2013-07-08 12:53:00
7:53 AM,64.0,52.0,65,30.02,10.0,Calm,Calm,-,N/A,,Overcast,0,2013-07-08 13:53:00
8:41 AM,68.0,50.0,52,30.37,10.0,South,9.2,-,N/A,Thunderstorm,Mostly Cloudy,170,2013-07-08 14:41:00
8:53 AM,69.1,51.1,53,30.04,10.0,South,11.5,-,N/A,Thunderstorm,Scattered Clouds,190,2013-07-08 14:53:00
9:08 AM,69.8,51.8,53,30.37,10.0,SSW,12.7,-,N/A,,Clear,200,2013-07-08 15:08:00
9:53 AM,68.0,51.1,55,30.04,10.0,SW,12.7,-,N/A,,Clear,220,2013-07-08 15:53:00
10:53 AM,75.9,51.1,42,30.01,10.0,South,11.5,-,N/A,,Clear,190,2013-07-08 16:53:00
11:53 AM,80.1,51.1,36,29.98,10.0,South,16.1,21.9,N/A,,Clear,180,2013-07-08 17:53:00
12:53 PM,82.9,48.9,31,29.94,10.0,SSE,16.1,23.0,N/A,,Clear,160,2013-07-08 18:53:00
1:53 PM,82.9,48.0,29,29.95,10.0,South,20.7,27.6,N/A,,Clear,170,2013-07-08 19:53:00
2:53 PM,79.0,51.1,38,29.97,10.0,South,15.0,21.9,N/A,,Clear,170,2013-07-08 20:53:00
3:53 PM,78.1,51.1,39,29.98,10.0,South,11.5,-,N/A,,Clear,180,2013-07-08 21:53:00
4:53 PM,72.0,53.1,51,29.99,10.0,West,8.1,-,N/A,,Clear,270,2013-07-08 22:53:00
5:53 PM,72.0,52.0,49,30.01,10.0,WNW,6.9,-,N/A,,Clear,290,2013-07-08 23:53:00
6:53 PM,72.0,54.0,53,30.01,10.0,NNW,3.5,-,N/A,,Clear,330,2013-07-09 00:53:00
7:53 PM,71.1,54.0,55,30.01,10.0,Calm,Calm,-,N/A,,Clear,0,2013-07-09 01:53:00
8:53 PM,69.1,54.0,58,30.01,10.0,WNW,4.6,-,N/A,,Clear,290,2013-07-09 02:53:00
9:53 PM,66.0,55.0,68,30.04,10.0,WSW,3.5,-,N/A,,Clear,250,2013-07-09 03:53:00
10:53 PM,66.0,54.0,65,30.02,10.0,South,5.8,-,N/A,,Clear,190,2013-07-09 04:53:00
11:53 PM,66.0,53.1,63,30.00,10.0,SSW,11.5,-,N/A,,Clear,210,2013-07-09 05:53:00